This demonstration page uses our WeatherBlox Daily Observations layout. Learn more.

Left ArrowRight Arrow

Hourly Observations for March 9, 2016

Temp ( °F °C ) Dew Point ( °F °C ) Humidity (%) Winds ( mph kmh ) Pressure ( in mb ) Visibility ( mi km ) Precip ( " mm )
12:53 am 00:53 Clear 62 16.7 44 6.7 52 52 SSW 8 13 30.06 1018 10 16 N/A
1:53 am 01:53 Clear 63 17.2 45 7.2 52 52 SSW 7 11 30.05 1018 10 16 N/A
2:53 am 02:53 Clear 62 16.7 45 7.2 54 54 VRB 5 7 30.04 1017 10 16 N/A
3:53 am 03:53 Clear 62 16.7 46 7.8 56 56 S 6 9 30.04 1017 10 16 N/A
4:53 am 04:53 Clear 61 16.1 46 7.8 58 58 S 5 7 30.04 1017 10 16 N/A
5:53 am 05:53 Clear 56 13.3 46 7.8 70 70 ESE 5 7 30.03 1017 10 16 N/A
6:53 am 06:53 Clear 57 13.9 46 7.8 67 67 N N/A 30.04 1017 10 16 N/A
7:53 am 07:53 Sunny 59 15 47 8.3 64 64 E 3 6 30.04 1017 10 16 N/A
8:53 am 08:53 Sunny 64 17.8 49 9.4 58 58 S 8 13 30.06 1018 10 16 N/A
9:53 am 09:53 Sunny 66 18.9 49 9.4 54 54 SSW 9 15 30.08 1019 10 16 N/A
10:53 am 10:53 Sunny 70 21.1 50 10 49 49 SW 14 22 30.08 1019 10 16 N/A
11:53 am 11:53 Partly Cloudy 72 22.2 51 10.6 48 48 SW 10 17 30.04 1017 10 16 N/A
12:53 pm 12:53 Sunny 72 22.2 50 10 46 46 SSW 16 26 30.03 1017 10 16 N/A
1:53 pm 13:53 Sunny 70 21.1 51 10.6 51 51 SW 15 24 30.03 1017 10 16 N/A
2:53 pm 14:53 Cloudy with Light Rain 68 20 52 11.1 57 57 SW 10 17 30.03 1017 10 16 N/A
3:53 pm 15:53 Cloudy with Light Rain 66 18.9 53 11.7 63 63 SW 6 9 30.05 1018 10 16 N/A
4:53 pm 16:53 Cloudy with Rain 60 15.6 57 13.9 90 90 SW 3 6 30.04 1017 3 4 0.05 1.27
5:02 pm 17:02 Cloudy with Light Rain 60 15.6 58 14.4 93 93 SW 3 6 30.06 1018 4 6 0.01 0.25
5:28 pm 17:28 Cloudy with Rain 59 15 57 13.9 93 93 SW 5 7 30.06 1018 2 3 0.05 1.27
5:39 pm 17:39 Cloudy with Rain 59 15 57 13.9 93 93 N N/A 30.06 1018 2 2 0.09 2.29
5:43 pm 17:43 Cloudy with Rain 59 15 58 14.4 96 96 N N/A 30.06 1018 2 3 0.09 2.29
5:53 pm 17:53 Cloudy with Rain 59 15 58 14.4 96 96 N N/A 30.06 1018 2 3 0.12 3.05
6:13 pm 18:13 Cloudy with Light Rain 59 15 58 14.4 96 96 N N/A 30.06 1018 3 5 0.03 0.76
6:53 pm 18:53 Cloudy with Light Rain 58 14.4 57 13.9 97 97 N N/A 30.05 1018 6 10 0.06 1.52
7:53 pm 19:53 Cloudy with Mist and Fog 58 14.4 57 13.9 97 97 N N/A 30.05 1018 4 6 N/A
8:16 pm 20:16 Cloudy with Light Rain 58 14.4 57 13.9 97 97 N N/A 30.06 1018 2 3 N/A
8:22 pm 20:22 Cloudy with Mist and Fog 58 14.4 57 13.9 97 97 N N/A 30.06 1018 2 2 N/A
8:36 pm 20:36 Cloudy with Light Rain 57 13.9 56 13.3 96 96 N N/A 30.06 1018 1 1 N/A
8:53 pm 20:53 Cloudy with Light Rain 57 13.9 57 13.9 100 100 N N/A 30.05 1018 1 1 N/A
9:19 pm 21:19 Cloudy with Fog 56 13.3 56 13.3 100 100 N N/A 30.09 1019 0 0 N/A
9:43 pm 21:43 Mostly Cloudy with Mist and Fog 57 13.9 57 13.9 100 100 N N/A 30.06 1018 1 1 N/A
9:53 pm 21:53 Mostly Cloudy with Fog 56 13.3 56 13.3 100 100 N N/A 30.05 1018 0 0 N/A
10:27 pm 22:27 Cloudy with Mist and Fog 57 13.9 56 13.3 96 96 N N/A 30.06 1018 1 2 N/A
10:34 pm 22:34 Cloudy with Fog 56 13.3 56 13.3 100 100 N N/A 30.09 1019 1 1 N/A
10:53 pm 22:53 Cloudy with Fog 56 13.3 56 13.3 100 100 N N/A 30.05 1018 1 1 N/A
11:18 pm 23:18 Cloudy with Mist and Fog 57 13.9 56 13.3 96 96 N N/A 30.06 1018 2 3 N/A
11:26 pm 23:26 Cloudy with Mist and Fog 57 13.9 57 13.9 100 100 N N/A 30.06 1018 3 4 N/A
11:49 pm 23:49 Cloudy with Mist and Fog 57 14 55 13 94 94 N N/A 30.06 1018 2 2 N/A
11:53 pm 23:53 Cloudy with Mist and Fog 57 13.9 56 13.3 96 96 N N/A 30.05 1018 2 3 N/A

Powered by AerisWeather